Oakdale · NYS Corporation


Oakdale · NYS Corporation

DOS ID Business Entity Name Address Filing Date
6020753 Blue Dream Farms L.L.C. 165 Matthews Rd., Oakdale, NEW YORK 11769 2021-05-25
6019168 Hollywood Drive Inc. 348 Vanderbilt Blvd, Oakdale, NEW YORK 11769 2021-05-21
6016577 117 Jewel St LLC 19 Hewlett Lane, Oakdale, NEW YORK 11769 2021-05-19
6017181 Mystic Brothers Production Inc. 3 Vincent Place, Oakdale, NEW YORK 11769 2021-05-19
6013154 Rn Essentials Pllc 104 Patricia Court, Oakdale, NEW YORK 11769 2021-05-14
5999097 A. B. Rice Cottage, LLC 7926 9th St. Circle N., Oakdale, MINNESOTA 55128 2021-04-27
5995030 Update Electric Inc. 549 Ocean Avenue, Oakdale, NEW YORK 11769 2021-04-21
5992060 Barbar Beach LLC 614 Edgewater Rd., Oakdale, NEW YORK 11769 2021-04-19
5986767 Dorothy Ziccardi Real Estate Inc 7 Wateredge Ct, Oakdale, NEW YORK 11769 2021-04-12
5983905 Chris' Cleaning LLC 36 Twin River Dr., Oakdale, NEW YORK 11769 2021-04-08
5982897 4 Atlantic Walk LLC 116 Biltmore Ave., Oakdale, NEW YORK 11769 2021-04-07
5979366 Autoworx Unlimited LLC 1439 Montauk Hwy, Oakdale, NEW YORK 11769 2021-04-01
5977164 Max Auto Salvage & Scrap Metal Inc. 147 Guilford Ave, Oakdale, NEW YORK 11769 2021-03-31
5974381 Ferro Unlimited, LLC 168 Connetquot Road, Oakdale, NEW YORK 11769 2021-03-26
5968871 Ppt Transformations, Inc. 7 Wateredge Ct., Oakdale, NEW YORK 11769 2021-03-22
5965622 Planted Blessings LLC 48 Van Bomel Blvd, Oakdale, NEW YORK 11769 2021-03-17
5960732 Cleantech Hvac LLC 191 Matthews Road, Oakdale, NEW YORK 11769 2021-03-11
5953929 Brass Ring Development LLC 1 Woodlawn Ave., Oakdale, NEW YORK 11769 2021-03-03
5952584 Bud Brothers Li LLC 11 Ebbtide Ct., Oakdale, NEW YORK 11769 2021-03-02
5952712 Delcid High Performance Soccer LLC 145 Vanderbilt Blvd., Oakdale, NEW YORK 11769 2021-03-02
5950815 Power Guards Inc. 136 Vanderbilt Boulevard, Oakdale, NEW YORK 11769 2021-02-26
5946711 Hdc Electrical Solutions, LLC 147 Franklin Ave., Oakdale, NEW YORK 11769 2021-02-22
5941024 Jade Street Consulting Inc. 11 Jade St, Oakdale, NEW YORK 11769 2021-02-12
5936269 Paul A. Carruthers P.C. 115 Cross Road, Oakdale, NEW YORK 11769 2021-02-08
5934684 Kinetic Services LLC 76 Biltmore Ave, Oakdale, NEW YORK 11769 2021-02-04
5933625 Odonata Health, Inc. 3510 Hopkins Place N, Oakdale, MINNESOTA 55128 2021-02-04
5933669 Whooley Carting LLC 21 Chateau Dr., Oakdale, NEW YORK 11769 2021-02-04
5930817 Frontline Educators LLC 104 Patricia Ct, Oakdale, NEW YORK 11769 2021-02-01
5919430 Buildability Group LLC 33 Greenview Court, Oakdale, NEW YORK 11769 2021-01-15
5916999 Pitbull Marketing Corp. 927 Montauk Highway #300, Oakdale, NEW YORK 11769 2021-01-13
5914875 Completely Custom Associates, Inc. 24 Locust Ave, Oakdale, NEW YORK 11769 2021-01-11
5906648 L.a.p.l Corp. 571 Race Place, Oakdale, NEW YORK 11769 2020-12-31
5906007 Baymen Builders Ny Corp P.o. Box 405, Oakdale, NEW YORK 11769 2020-12-30
5904059 Sellingnewyorkwithmary LLC 104 Middlesex Ave., Oakdale, NEW YORK 11769 2020-12-28
5901590 Guiliano Holdings Corp. 60 Middlesex Ave, Oakdale, NEW YORK 11769 2020-12-22
5896848 Jett Cleaning and Disinfecting Service LLC 66 Woodlawn Ave., Oakdale, NEW YORK 11769 2020-12-14
5890420 Gold Coast Barbers @ Huntington Inc. 24 W Shore Road, Oakdale, NEW YORK 11769 2020-12-04
5882357 Management Elite LLC 96 Grassmere Ave, Oakdale, NEW YORK 11769 2020-11-19
5878582 Zero Candy Molds LLC 14 Montauk Place, Oakdale, NEW YORK 11769 2020-11-16
5873197 Dp Marketing Ltd. 8 Race Place, Oakdale, NEW YORK 11769 2020-11-06
5865811 Liny Trucking Corp 107 Lakeside Dr, Oakdale, NEW YORK 11769 2020-10-27
5855310 Animal Im LLC 4 Jade St, Oakdale, NEW YORK 11769 2020-10-13
5853166 Right Thing Plumbing & Hvac Inc. 128 Lakeside Dr, Oakdale, NEW YORK 11769 2020-10-08
5852231 Digital Ventures Holdings LLC 510 Sycamore Ave., Oakdale, NEW YORK 11769 2020-10-07
5851731 Shahzadi Badar LLC 38 Ivy Hill Rd, Oakdale, NEW YORK 11769-1507 2020-10-06
5850820 Glow On The Go By Kim LLC 238 Matthews Road, Oakdale, NEW YORK 11769 2020-10-05
5846602 Bhumi Beer & Smoke Inc. 949c Montauk Hwy, Oakdale, NEW YORK 11769 2020-09-29
5837444 Ls Picturesque LLC 8 Montauk Pl., Oakdale, NEW YORK 11769 2020-09-17
5834101 Long Island Roundnet LLC 8 Montauk Pl, Oakdale, NEW YORK 11769 2020-09-11
5822897 The Collective Consciousness Inc 945 Montauk Hwy, Oakdale, NEW YORK 11769 2020-08-27
5818013 All-Star Cards, Inc. 16 Berard Blvd., Oakdale, NEW YORK 11769 2020-08-21
5814213 Rivera Family Properties LLC 165 Matthews Rd, Oakdale, NEW YORK 11769 2020-08-17
5811860 Skills Tutoring LLC 405 O'Keefe Court, Oakdale, NEW YORK 11769 2020-08-13
5811508 Rhg Music LLC 241 Matthews Rd., Oakdale, NEW YORK 11769 2020-08-13
5803873 Lit Golf Company LLC 253 Matthews Rd., Oakdale, NEW YORK 11769 2020-08-04
5797235 Loudatena Inc. 4818 Wilshire Lane, Oakdale, NEW YORK 11769 2020-07-27
5783759 Auto Parts of Long Island LLC 102 Grassmere Ave, Oakdale, NEW YORK 11769 2020-07-09
5774545 A&m Quality Pest Control LLC 133 Grassmere Ave, Oakdale, NEW YORK 11769 2020-06-25
5774711 Mullen Consulting LLC 150 Middlesex Ave, Oakdale, NEW YORK 11769 2020-06-25
5772626 Cjs Reporting, Inc. 243 Bayview Drive South, Oakdale, NEW YORK 11769 2020-06-23
5768199 J & J Fishing Charters LLC 192 Bellevue Rd, Oakdale, NEW YORK 11769 2020-06-16
5759066 Island Wide Mobile Marine Inc. 34 Academy Lane, Oakdale, NEW YORK 11769 2020-06-01
5755365 8/8a Soundview LLC 72 Canal Rd., Oakdale, NEW YORK 11769 2020-05-22
5753252 Pepperidge Consulting Corp 147 Pepperidge Road, Oakdale, NEW YORK 11769 2020-05-19
5751027 Sullcap LLC 155 Matthews Rd, Oakdale, NEW YORK 11769 2020-05-14
5747484 Pfh Roofing Inc 22 Featherbed Ln, Oakdale, NEW YORK 11769 2020-05-07
5744992 Shoreline Voice Services Inc. 27 Idle Hour Road, Oakdale, NEW YORK 11769 2020-05-01
5742087 H2 Cleaning Services Inc 287 Oakdale Blvd, Oakdale, NEW YORK 11769 2020-04-24
5739258 Sommer Design and Build, Inc. 274 Edgewood Ave, Oakdale, NEW YORK 11769 2020-04-17
5729451 Anderson O'Mahony Properties Corp. 266 Oakwood Road, Oakdale, NEW YORK 11769 2020-03-18
5723902 Muldoon Plumbing Inc. 160 Franklin Road, Oakdale, NEW YORK 11769 2020-03-09
5723570 Dallas Law, LLC 649 Edgewater Rd., Oakdale, NEW YORK 11769 2020-03-06
5722271 Herb'N Apothecary Limited Liability Company 522 Locust Avenue, Oakdale, NEW YORK 11769 2020-03-05
5721611 Tne Properties Inc. 474 Shore Dr., Oakdale, NEW YORK 11769 2020-03-04
5715296 Gutters Done Right Inc. 242 Bayview Drive South, Oakdale, NEW YORK 11769 2020-02-25
5704298 Eagle House Consulting Services LLC 44 Featherbed Ln., Oakdale, NEW YORK 11769 2020-02-07
5692932 The Hoagland Group Inc. 223 Brook Street, Oakdale, NEW YORK 11769 2020-01-21
5689951 217 Oakdale Bohemia Road Corp. 217 Oakdale Bohemia Road, Oakdale, NEW YORK 11769 2020-01-15
5688082 Quality Draft Services, LLC 41 Riverdale Avenue, Oakdale, NEW YORK 11769 2020-01-13
5686151 Modern Roots Acupuncture P.C. 889 Montauk Highway, Oakdale, NEW YORK 11769 2020-01-10
5683965 Jlt Detailing Corp. 36 Lincoln Dr., Oakdale, NEW YORK 11769 2020-01-07
5681778 Jag Construction & Maintenance Inc. 68 Wilshire Lane, Oakdale, NEW YORK 11769 2020-01-03
5678344 Greenpath Nails Inc 877 Montauk Hwy, Oakdale, NEW YORK 11769 2019-12-27
5675773 Fg Unlimited Trading LLC 146 Middlesex Ave, Oakdale, NEW YORK 11769 2019-12-20
5670514 Ridgeline Contracting, Inc. 134 Matthews Rd., Oakdale, NEW YORK 11769 2019-12-12
5666191 Rana Sabgap LLC 38 Ivyhill Road, Oakdale, NEW YORK 11769 2019-12-04
5662769 16 Park Oak, LLC 538 Race Place, Oakdale, NEW YORK 11769 2019-11-26
5655203 The Golden Frog LLC 62 Golden Horn Road, Oakdale, NEW YORK 11769 2019-11-13
5652808 The Onion Tree - Gastropub, LLC 7 Jade St., Oakdale, NEW YORK 11769 2019-11-08
5642772 30 Easy Street Corp. 182 Idle Hour Boulevard, Oakdale, NEW YORK 11769 2019-10-23
5620566 A & P Pizza Inc. 587-89 Montauk Highway, Oakdale, NEW YORK 11769 2019-09-13
5617288 Elite Condition Detailing Inc. 203 Brook St., Oakdale, NEW YORK 11769 2019-09-09
5617280 Rover Wholesale Distributors Inc 67 Wilshire Ln, Oakdale, NEW YORK 11769 2019-09-09
5615508 Mr. Rotor Rooterman of Long Island Inc. 169 Blue Point Road, Oakdale, NEW YORK 11769 2019-09-05
5598286 Abcg Homes LLC 102 Cross Road, Oakdale, NEW YORK 11769 2019-08-02
5585083 Miracles Through Maddy 269 Oakdale Road, Oakdale, NEW YORK 11769 2019-07-10
5583661 Rim-Rod LLC 187 Matthews Rd., Oakdale, NEW YORK 11769 2019-07-09
5580947 Pm Patsos Consulting Corp 6 Cloverdale Drive, Oakdale, NEW YORK 11769 2019-07-02
5579777 Linglong Ny, Inc. 591 Mountauk Hwy, Oakdale, NEW YORK 11769 2019-06-28
5579581 Sylvia's Sales LLC 166 Bellevue Rd, Oakdale, NEW YORK 11769 2019-06-28

City

City Counts
1. New York 637769 19.01%
2. Brooklyn 465944 13.89%
3. Albany 158663 4.73%
4. Bronx 101983 3.04%
5. Staten Island 57444 1.71%
6. Flushing 53665 1.60%
7. Buffalo 49131 1.46%
8. Rochester 40403 1.20%
9. Jamaica 26373 0.79%
10. Great Neck 25103 0.75%
11. Astoria 23749 0.71%
12. Yonkers 22896 0.68%
13. White Plains 22113 0.66%
14. Syracuse 17952 0.54%
15. Long Island City 17812 0.53%
16. Garden City 14774 0.44%
17. Forest Hills 13821 0.41%
18. Monsey 13606 0.41%
19. Valley Stream 12360 0.37%
20. New Rochelle 12299 0.37%